Вернуться в каталог

HULIANWANG DIGUI-134

АктивенСвязьLEO
NORAD 67242·PAYLOAD·🇨🇳 China

Запущен Dec 25, 2025 с Wenchang Space Launch Site

Loading…

Ближайшие Пролёты (ближайшие 24 часа)

TLE

СвежийSource: Space-Track

Эпоха: Sep 14, 2026, 01:58 UTC

1 67242U 25311G   26257.08247578 -.00000073  00000-0  11036-3 0  9991
2 67242  50.0030 156.9401 0000264 308.6423  51.4426 13.29325041 35162

Отслеживайте HULIANWANG DIGUI-134 в реальном времени с AllMySat

Download on the App Store